GEFSSE_500_meanwind_276.txt.gz
Wind_Speed
3 3 3 3 3 3 4 5 6 5 5 5 6 6 6 6 6 6 5 5 5 5 6 6 7 7 7 7 6 6 6 5 5 5 6 5 5 4 4 4 3 3 3
2 3 3 3 3 3 3 5 6 6 6 6 6 6 6 6 6 6 6 6 6 5 5 6 7 7 7 6 6 5 5 5 5 5 5 4 4 4 3 3 3 2 3
3 3 3 3 3 3 3 5 6 6 7 6 6 6 6 6 6 6 6 6 6 6 5 6 7 7 6 6 6 5 5 5 5 4 4 4 4 3 3 3 2 3 2
3 3 2 3 3 3 4 6 6 7 6 7 7 6 6 6 6 6 6 6 7 6 6 5 6 6 6 6 6 5 5 5 5 4 4 3 3 3 3 3 2 3 2
3 3 3 2 2 3 4 5 6 7 7 7 7 6 6 5 5 5 5 6 6 6 6 6 7 7 6 5 5 5 5 5 5 4 3 3 2 2 2 2 2 3 3
3 3 3 3 4 4 4 5 5 6 7 7 7 7 6 6 5 5 5 6 6 6 5 5 5 6 6 6 6 6 5 4 4 3 3 3 2 2 2 2 2 3 3
3 2 3 3 4 4 4 4 4 5 5 5 6 6 6 5 5 4 5 5 5 6 5 5 6 6 6 6 6 5 5 4 3 3 3 3 2 2 2 2 2 2 2
3 3 3 2 3 3 3 3 3 3 3 4 5 5 6 5 4 4 4 5 5 5 6 6 5 6 5 5 4 4 4 3 3 3 3 3 3 3 3 2 1 2 1
5 4 3 3 2 2 2 2 3 3 3 4 5 5 5 5 5 4 4 5 4 4 4 4 4 3 4 4 3 3 2 3 3 2 3 3 3 3 2 3 2 2 2
6 5 4 3 3 3 2 2 3 3 4 4 4 4 4 4 5 5 4 4 4 3 4 4 3 4 4 3 3 3 2 2 2 2 3 3 3 2 2 2 2 2 1
6 5 5 4 3 3 2 2 3 3 3 4 4 4 4 4 4 5 4 4 4 3 3 3 3 2 3 2 2 1 1 2 2 2 3 3 3 2 2 1 2 2 1
8 6 5 4 4 3 3 2 2 2 3 3 3 3 4 4 5 5 5 4 3 3 3 3 2 2 2 1 1 1 1 2 2 2 2 3 3 2 1 1 1 2 1
9 8 7 6 5 4 3 3 2 2 2 2 3 3 3 3 4 4 4 4 3 3 3 3 2 2 1 1 1 1 1 1 2 3 3 3 2 2 2 1 2 2 2
9 9 9 8 7 5 5 4 2 3 2 2 3 3 2 3 4 4 4 3 3 3 2 3 2 1 1 1 0 1 1 3 3 3 3 3 3 2 2 2 3 3 2
9 10 9 9 8 7 6 4 3 3 3 2 2 3 3 2 3 3 3 3 3 2 2 3 2 2 1 1 1 2 3 3 3 3 3 3 4 3 3 3 3 3 3
9 9 9 9 8 8 6 5 3 2 2 3 2 2 3 3 3 3 2 2 1 1 1 2 2 2 2 2 2 2 3 3 4 4 4 4 3 3 3 3 4 3 3
10 10 10 10 9 8 7 6 4 3 3 3 2 2 2 2 2 2 2 1 1 1 1 1 1 1 2 2 3 2 3 3 5 5 5 5 4 4 4 4 4 4 4
10 11 10 10 9 9 8 7 6 4 3 3 2 1 1 1 1 1 1 1 1 1 1 1 1 2 2 3 3 3 4 4 5 5 5 5 5 5 5 5 5 5 6
11 10 10 10 10 9 8 8 7 6 5 4 3 3 2 2 1 1 0 1 1 1 1 1 1 3 3 3 3 4 4 5 5 5 5 5 5 5 5 5 6 6 6
11 10 10 9 9 10 8 7 7 6 5 4 4 4 3 3 2 1 0 1 2 2 2 3 3 3 4 4 4 4 5 5 6 6 6 5 5 6 6 6 7 7 7
10 11 10 10 9 10 8 7 6 5 4 3 4 4 3 2 2 2 2 1 2 2 2 3 3 4 5 4 5 5 6 6 6 6 6 6 6 6 6 7 8 8 9
10 10 9 9 9 9 8 8 6 5 4 4 3 3 3 3 3 2 2 2 2 2 3 3 4 4 5 5 5 6 6 7 7 7 7 7 6 6 7 8 9 9 9
9 9 9 9 9 9 8 8 7 5 4 3 3 3 3 2 3 3 3 2 3 4 4 4 5 5 5 5 5 6 6 6 7 6 6 7 6 7 8 9 9 9 9
10 9 9 9 9 9 8 8 7 6 4 3 3 3 3 2 2 2 3 4 4 4 4 5 6 5 5 4 5 6 6 5 6 6 6 7 7 8 9 9 9 9 9
9 9 10 9 9 9 8 7 7 6 5 3 3 3 3 2 2 2 3 4 5 4 5 6 6 5 4 4 5 5 6 6 6 7 6 6 7 7 8 8 9 9 9
9 9 9 9 9 9 9 8 6 5 5 5 4 4 3 3 3 4 4 4 5 6 6 5 5 5 5 5 6 6 6 6 7 7 7 7 7 8 9 9 9 9 9

GEFSSE_500_meanwind_282.txt.gz
Wind_Speed
3 3 3 4 4 5 5 5 6 6 6 5 5 5 5 5 5 5 5 5 5 5 5 6 7 6 6 5 5 5 5 5 5 6 5 5 6 5 6 5 5 5 5
4 3 2 2 4 5 5 5 6 6 5 5 4 5 5 5 5 6 5 5 5 5 5 5 6 6 5 4 5 6 6 6 5 5 5 5 5 5 5 5 5 4 4
4 4 4 3 4 5 5 5 5 5 5 5 5 5 5 5 5 6 6 5 5 4 5 5 6 5 5 4 5 5 6 6 4 4 5 5 5 4 5 4 4 4 4
5 5 4 4 4 5 5 5 5 6 6 5 5 5 5 5 6 6 6 6 5 4 4 5 5 4 4 4 5 6 6 5 4 4 4 4 4 4 4 4 3 3 4
5 6 5 5 5 5 6 6 6 5 5 5 4 4 5 5 5 5 5 5 5 4 3 4 4 4 4 5 6 6 5 5 4 4 5 4 4 3 3 3 3 3 3
5 5 6 6 5 5 5 6 6 5 4 4 4 4 5 5 5 5 5 5 5 4 4 4 4 4 5 5 6 6 5 5 4 4 4 4 4 4 2 2 2 3 4
6 6 7 6 6 6 6 5 5 4 4 4 4 4 5 5 5 5 4 4 4 4 4 4 5 5 5 6 5 5 4 4 4 4 4 4 3 3 3 3 3 4 4
7 6 5 6 6 6 6 5 4 4 4 3 4 3 4 4 4 4 3 3 4 4 4 4 5 5 5 5 4 4 4 4 4 3 3 3 3 3 3 4 4 3 4
8 7 6 6 6 5 6 5 4 3 2 2 3 4 4 3 3 3 3 3 3 3 3 4 4 4 3 3 3 3 3 3 3 4 3 3 2 2 2 3 3 3 3
9 8 7 7 6 5 5 4 3 3 2 2 3 4 3 3 3 3 3 3 3 3 3 3 3 3 3 3 2 2 3 2 2 3 3 2 2 2 1 2 2 2 2
10 9 9 7 6 5 5 5 4 3 2 3 4 4 4 3 3 3 3 3 3 3 3 3 3 3 3 2 2 2 2 2 2 2 2 1 1 1 1 1 1 1 1
10 10 10 9 7 6 5 5 4 4 3 4 3 4 4 3 3 3 3 4 3 3 3 3 3 2 2 2 2 1 1 1 1 1 0 0 0 1 1 1 1 2 2
11 10 10 9 8 7 5 5 5 5 4 3 3 3 4 4 3 3 3 4 4 4 3 2 2 2 2 1 1 1 0 0 0 1 1 1 0 0 0 1 2 2 3
12 11 10 9 8 7 6 5 5 5 5 3 3 3 4 4 4 4 4 4 4 3 3 2 2 2 1 1 1 1 1 1 1 1 1 1 1 1 1 1 2 3 3
12 11 10 9 9 7 7 6 5 5 6 5 5 4 4 4 4 4 4 3 3 3 2 2 1 1 1 1 0 0 1 2 2 2 3 2 2 2 2 2 2 3 4
12 11 11 11 10 8 7 7 7 5 5 5 5 5 5 4 4 3 3 3 4 3 3 2 1 1 1 1 1 0 1 1 1 1 2 2 3 3 3 3 2 3 4
13 12 11 11 10 9 8 7 6 6 5 5 5 5 4 4 4 3 3 3 4 3 2 2 2 2 1 0 1 1 2 2 2 2 2 3 3 3 3 3 3 3 4
13 12 11 11 10 9 8 8 6 6 5 5 5 5 5 4 4 3 3 3 3 2 2 2 1 1 0 0 1 2 3 3 3 3 4 4 4 4 4 4 3 4 5
13 12 12 11 10 10 9 8 7 6 5 5 5 5 5 4 4 4 4 4 2 2 2 1 1 1 1 1 2 2 3 3 3 3 4 4 5 4 4 4 4 5 6
12 12 11 11 11 10 10 9 8 7 7 5 5 5 5 4 4 4 4 3 3 2 1 0 1 0 1 1 2 2 2 2 2 3 4 4 5 5 4 4 5 6 6
12 12 11 11 11 10 10 9 8 7 7 7 6 5 5 5 5 4 4 4 3 3 2 2 2 1 1 2 3 3 2 2 2 3 3 3 4 5 5 4 5 6 6
11 11 11 11 11 11 10 10 9 9 8 7 7 6 5 4 4 4 4 4 4 4 3 2 2 2 3 3 4 3 2 2 3 3 4 4 4 4 4 5 6 7 7
10 10 10 10 11 11 10 9 9 8 8 7 6 5 5 5 4 4 3 3 3 3 3 3 3 3 3 4 4 3 2 2 3 3 3 4 4 5 5 6 6 6 6
10 10 10 10 10 10 10 9 8 8 7 6 5 5 5 5 4 3 3 3 3 3 3 3 4 3 4 4 3 3 2 3 2 3 4 4 5 5 6 6 6 6 6
9 9 9 9 9 8 8 8 8 6 6 5 5 4 4 4 3 2 1 1 2 3 3 3 3 4 4 4 3 3 3 3 2 3 3 4 4 5 5 5 5 6 6
8 8 9 8 8 7 7 7 7 7 5 5 4 3 4 3 3 2 2 1 2 3 3 3 3 3 3 3 3 2 3 3 3 3 3 4 4 4 5 5 6 6 6

GEFSSE_500_meanwind_288.txt.gz
Wind_Speed
4 4 3 4 5 5 6 6 6 6 6 6 6 6 6 6 5 5 4 4 5 5 5 5 5 4 3 3 3 3 3 4 4 3 3 4 4 4 5 5 5 4 3
3 3 3 3 5 5 6 6 6 6 5 6 5 6 6 5 5 5 4 5 5 5 5 4 4 3 4 4 3 3 4 4 4 4 3 3 3 4 5 6 5 4 4
4 3 3 4 6 7 7 5 5 5 6 6 5 5 5 5 5 5 4 5 4 4 4 4 3 3 3 4 4 3 3 4 3 4 3 3 3 4 5 5 5 5 4
4 4 4 6 7 7 6 5 5 5 5 5 5 5 5 5 5 5 5 5 4 4 4 4 3 3 3 3 2 2 3 3 3 3 3 3 2 3 4 4 4 4 5
5 5 5 6 7 7 7 6 5 5 5 4 4 4 4 5 5 5 5 5 5 5 5 4 3 3 3 2 2 2 2 3 3 3 3 2 2 2 3 3 3 3 4
6 6 6 7 6 6 6 6 5 5 5 4 4 4 4 4 4 5 5 5 5 4 4 4 4 3 2 2 2 2 2 3 3 2 2 2 2 2 3 3 3 3 3
7 7 7 6 6 6 6 5 5 4 5 4 4 4 4 4 4 5 4 4 5 4 4 4 3 3 2 3 3 2 2 2 3 3 3 2 2 2 3 3 3 3 3
8 7 7 6 5 5 5 4 4 5 4 4 4 4 4 4 4 4 4 4 4 4 3 3 3 2 3 3 3 3 3 3 3 3 2 2 2 2 2 2 2 3 3
9 9 7 6 6 5 4 4 4 4 4 4 4 3 3 3 4 4 3 3 3 2 2 3 2 2 2 2 2 2 3 3 3 2 1 1 1 2 2 2 2 2 2
10 9 8 7 6 5 4 4 4 4 4 3 3 3 3 3 3 3 2 2 2 2 3 3 2 1 1 1 1 2 3 2 1 1 1 1 0 1 2 2 3 2 2
10 9 9 8 7 6 4 4 4 4 4 3 3 3 3 3 2 2 2 2 2 2 2 2 2 1 1 1 1 2 1 1 0 1 1 1 1 2 2 2 2 2 2
9 9 8 8 7 6 5 4 4 4 4 3 3 3 3 3 2 2 2 2 2 2 2 2 2 2 2 2 2 2 1 1 1 1 1 1 1 2 3 3 3 3 3
9 8 7 7 6 5 4 4 4 4 4 4 3 3 2 2 2 2 1 2 3 2 1 1 1 1 1 2 2 2 2 2 2 1 1 2 2 3 3 4 4 4 4
9 9 8 8 7 6 5 5 4 4 4 4 3 3 2 1 2 2 2 2 2 2 1 1 1 1 1 1 1 2 2 2 2 2 2 2 3 3 3 4 4 4 5
9 9 9 8 7 6 5 5 4 4 4 4 4 3 2 2 2 1 2 2 1 2 2 1 0 1 1 1 2 2 2 3 3 4 3 3 3 3 3 3 3 5 5
9 9 9 8 7 7 6 5 4 4 4 5 4 4 3 3 3 2 2 2 1 1 1 0 0 0 0 1 2 2 3 3 3 3 3 3 3 4 3 3 3 4 4
9 9 8 8 7 6 6 5 5 5 5 5 5 4 4 3 3 2 2 1 1 1 0 0 0 0 1 2 2 2 3 3 3 3 4 4 4 3 4 4 4 4 5
10 10 9 8 7 7 7 6 6 5 5 4 5 4 3 3 4 3 2 1 1 1 2 2 1 1 1 2 2 2 3 4 4 4 4 4 4 5 5 5 5 5 5
10 11 10 9 8 8 7 7 7 6 5 5 5 5 4 4 4 3 3 2 2 1 2 2 2 1 1 2 3 3 3 3 3 3 3 3 4 4 5 6 6 6 6
10 10 10 10 9 8 8 8 7 6 5 5 4 4 4 4 4 3 3 2 2 2 2 2 1 1 2 3 3 3 2 2 2 3 3 4 4 5 5 5 6 6 7
9 10 10 10 9 9 9 8 7 6 6 5 5 4 3 4 3 3 2 2 2 3 2 2 1 1 2 3 4 3 3 2 2 2 3 4 4 5 5 6 6 7 8
9 9 10 9 9 8 8 8 7 6 6 5 5 4 3 3 3 2 2 2 3 2 2 2 1 1 2 3 3 3 3 3 3 2 2 3 3 4 4 5 6 7 7
7 8 9 8 8 7 7 7 7 6 5 4 4 4 3 2 2 2 1 2 2 1 2 2 2 2 3 4 4 3 3 3 2 2 2 2 3 3 4 5 5 6 6
6 7 7 7 7 7 6 6 6 5 4 4 3 3 3 2 2 2 2 2 2 1 1 2 2 3 3 3 4 4 4 3 3 3 3 3 3 4 5 6 6 7 6
5 7 7 7 6 6 6 6 5 4 4 3 3 2 2 1 1 1 1 1 1 1 2 2 3 3 4 4 4 4 4 3 4 3 3 3 3 5 5 6 7 7 7
5 6 7 6 5 5 5 5 5 4 4 3 2 2 1 1 1 1 2 2 2 3 2 3 4 4 4 4 4 4 4 4 4 4 4 4 4 6 6 7 7 7 8

GEFSSE_500_meanwind_294.txt.gz
Wind_Speed
5 6 6 6 5 6 6 6 6 6 6 6 5 5 6 5 5 6 6 6 6 5 6 6 5 4 3 3 2 2 2 1 2 2 2 1 1 3 4 4 4 4 4
5 5 5 5 5 5 5 5 6 6 6 5 5 5 5 5 5 5 5 6 6 5 5 5 4 4 3 3 2 2 2 2 2 2 1 1 1 4 4 4 4 4 5
4 4 4 5 4 5 5 5 5 6 6 5 5 5 5 5 5 5 5 5 5 5 5 5 4 4 3 3 3 2 2 2 3 1 1 2 3 4 6 5 4 5 5
5 5 5 6 6 5 5 5 5 6 6 5 4 4 5 5 5 5 6 5 5 4 5 5 4 3 3 3 3 3 2 2 2 2 2 2 3 3 5 5 5 6 6
5 6 6 6 6 6 5 5 5 5 5 4 4 3 4 5 6 6 7 6 5 5 5 5 4 3 2 3 3 3 2 2 2 2 2 2 2 2 4 5 5 5 5
5 6 6 6 6 6 6 5 5 5 5 4 4 4 4 5 7 7 6 5 4 4 4 4 4 3 3 3 3 3 3 3 3 2 2 2 2 2 3 4 5 5 4
7 7 7 6 6 6 5 4 4 4 4 5 5 5 5 5 6 5 5 5 4 3 3 3 2 2 2 2 2 2 2 2 2 2 2 2 2 2 2 3 3 4 4
7 7 6 6 6 6 5 4 4 4 5 5 5 4 4 4 5 5 5 5 3 3 3 3 2 2 2 2 2 2 2 2 1 2 2 1 1 1 2 3 3 3 3
6 6 5 5 5 5 5 4 4 4 4 5 4 3 4 4 4 4 4 4 3 3 3 3 2 2 2 2 2 3 3 2 2 1 1 2 2 1 2 4 3 3 3
6 5 5 4 5 5 4 4 4 4 4 4 3 3 3 2 2 3 3 3 3 3 3 2 2 2 2 2 2 2 3 2 2 1 2 3 3 3 3 4 4 3 3
6 6 5 5 4 4 4 3 3 3 3 3 3 3 2 2 2 2 2 2 3 3 3 3 2 2 3 2 2 2 2 2 2 2 2 2 3 3 3 4 4 4 4
6 5 5 5 4 4 3 3 2 2 2 2 2 2 2 2 2 2 2 2 2 2 2 2 2 3 3 3 3 3 2 1 0 1 1 2 2 3 3 4 4 5 5
6 6 5 5 5 4 3 3 2 2 2 2 2 2 3 3 3 2 2 2 2 2 2 2 1 2 2 3 3 2 1 1 1 1 1 1 2 3 4 4 4 4 4
7 6 5 5 5 4 3 2 2 1 2 1 1 2 2 3 3 2 2 2 2 3 2 2 2 1 1 1 2 2 2 2 2 2 2 2 2 3 4 3 4 5 5
7 6 5 5 5 4 4 3 2 2 2 2 2 2 3 3 2 2 2 2 2 2 2 2 2 1 1 1 2 1 2 2 3 3 3 2 3 4 4 4 4 6 6
7 6 5 5 5 5 4 3 3 2 2 2 3 3 3 2 2 2 2 2 2 2 1 2 2 1 1 1 1 1 1 1 2 3 3 3 4 5 5 4 5 6 6
7 7 6 5 5 4 4 3 3 3 3 3 3 2 2 3 2 2 2 2 2 1 1 1 1 1 1 1 1 1 1 1 2 3 3 4 4 4 5 5 5 6 7
7 7 6 5 4 4 4 3 3 3 3 3 2 2 3 2 2 2 1 2 1 1 1 2 2 1 1 1 1 1 2 2 2 3 4 4 4 4 4 5 5 6 6
7 7 6 5 4 4 4 4 3 3 3 3 3 3 2 2 2 1 1 1 1 1 1 1 1 1 1 0 1 1 2 2 3 3 4 4 3 4 4 5 5 5 5
7 7 6 6 5 4 4 4 3 3 3 3 2 2 1 2 2 1 1 1 1 1 1 1 1 0 0 0 1 2 3 3 3 3 3 3 3 4 4 4 5 5 5
7 7 6 6 6 5 4 4 4 3 2 2 2 2 1 1 2 1 1 1 1 0 0 0 1 1 0 1 1 2 3 3 3 2 3 3 3 4 4 5 5 5 5
7 7 7 7 6 5 4 3 3 3 2 1 1 1 1 1 2 1 1 1 0 0 0 1 1 1 1 1 1 2 3 3 2 2 3 3 3 4 4 5 5 5 5
7 8 8 6 5 5 4 3 3 2 2 2 2 1 1 1 1 2 1 1 1 1 1 0 0 2 2 2 2 3 3 4 3 3 4 4 4 4 4 5 5 5 5
7 7 7 6 5 5 5 4 3 2 2 2 2 1 1 1 1 0 1 1 0 1 1 1 1 2 2 3 3 3 3 4 4 4 4 4 4 4 4 5 5 6 6
7 7 6 6 5 5 5 5 4 3 3 3 2 1 1 1 1 1 1 2 2 1 2 2 2 2 3 3 4 4 3 4 4 4 5 5 5 4 5 5 6 6 7
6 7 6 6 6 6 5 5 5 4 3 3 3 2 2 2 2 2 2 3 3 3 3 3 3 4 4 4 4 4 4 5 5 5 5 6 6 6 6 6 7 7 8